• In Hungary
  • List of Countries
  • For 7 days
  • Water Temperature
  • Satellite Maps
  • Weather Map
  • News
  • Weather Widgets
  • user-avatar
    Login

    Hourly Weather Gurba

    Today, 20 October, Saturday

    Time Temperature Precipitation Wind Pressure Humidity
    00:00 +9°C° 0 mm 1 mps 752 mmHg 80%
    01:00 +9°C° 0 mm 1 mps 752 mmHg 80%
    02:00 +9°C° 0 mm 1 mps 752 mmHg 81%
    03:00 +8°C° 0 mm 1 mps 752 mmHg 81%
    04:00 +8°C° 0 mm 1 mps 752 mmHg 82%
    05:00 +8°C° 0 mm 1 mps 752 mmHg 80%
    06:00 +8°C° 0 mm 1 mps 752 mmHg 79%
    07:00 +8°C° 0 mm 1 mps 753 mmHg 77%
    08:00 +10°C° 0 mm 1 mps 753 mmHg 72%
    09:00 +11°C° 0 mm 1 mps 753 mmHg 66%
    10:00 +12°C° 0 mm 1 mps 753 mmHg 61%
    11:00 +12°C° 0 mm 1 mps 753 mmHg 62%
    12:00 +12°C° 0 mm 1 mps 753 mmHg 64%
    13:00 +12°C° 0 mm 2 mps 752 mmHg 65%
    14:00 +12°C° 0.1 mm 2 mps 752 mmHg 68%
    15:00 +12°C° 0.1 mm 2 mps 752 mmHg 71%
    16:00 +10°C° 0.1 mm 2 mps 752 mmHg 74%
    17:00 +10°C° 0.1 mm 2 mps 752 mmHg 76%
    18:00 +10°C° 0.1 mm 2 mps 752 mmHg 79%
    19:00 +9°C° 0.1 mm 2 mps 752 mmHg 81%
    20:00 +9°C° 0 mm 2 mps 753 mmHg 82%
    21:00 +8°C° 0 mm 2 mps 753 mmHg 83%
    22:00 +8°C° 0 mm 2 mps 753 mmHg 84%
    23:00 +8°C° 0 mm 2 mps 753 mmHg 84%

    Tomorrow, 21 October, Sunday

    Time Temperature Precipitation Wind Pressure Humidity
    00:00 +7°C° 0 mm 2 mps 753 mmHg 85%
    01:00 +7°C° 0 mm 2 mps 753 mmHg 85%
    02:00 +7°C° 0 mm 2 mps 753 mmHg 86%
    03:00 +7°C° 0 mm 2 mps 753 mmHg 86%
    04:00 +6°C° 0 mm 2 mps 753 mmHg 87%
    05:00 +6°C° 0 mm 2 mps 753 mmHg 88%
    06:00 +6°C° 0 mm 2 mps 754 mmHg 90%
    07:00 +5°C° 0 mm 2 mps 754 mmHg 91%
    08:00 +7°C° 0 mm 2 mps 754 mmHg 83%
    09:00 +9°C° 0 mm 2 mps 755 mmHg 75%
    10:00 +10°C° 0 mm 2 mps 755 mmHg 67%
    11:00 +12°C° 0 mm 2 mps 755 mmHg 63%
    12:00 +13°C° 0 mm 2 mps 755 mmHg 59%
    13:00 +13°C° 0 mm 2 mps 755 mmHg 54%
    14:00 +13°C° 0 mm 2 mps 754 mmHg 57%
    15:00 +12°C° 0 mm 1 mps 754 mmHg 59%
    16:00 +12°C° 0 mm 1 mps 754 mmHg 61%
    17:00 +11°C° 0 mm 1 mps 754 mmHg 64%
    18:00 +10°C° 0 mm 1 mps 754 mmHg 68%
    19:00 +9°C° 0 mm 1 mps 755 mmHg 72%
    20:00 +7°C° 0 mm 0 mps 755 mmHg 74%
    21:00 +7°C° 0 mm 0 mps 755 mmHg 75%
    22:00 +7°C° 0 mm 0 mps 755 mmHg 77%
    23:00 +6°C° 0 mm 0 mps 755 mmHg 79%

    Day after tomorrow, 22 October, Monday

    Time Temperature Precipitation Wind Pressure Humidity
    00:00 +6°C° 0 mm 0 mps 755 mmHg 80%
    01:00 +6°C° 0 mm 0 mps 755 mmHg 82%
    02:00 +5°C° 0 mm 0 mps 754 mmHg 83%
    03:00 +6°C° 0 mm 1 mps 754 mmHg 84%
    04:00 +6°C° 0 mm 1 mps 754 mmHg 85%
    05:00 +6°C° 0 mm 1 mps 754 mmHg 85%
    06:00 +6°C° 0 mm 1 mps 754 mmHg 85%
    07:00 +6°C° 0 mm 1 mps 754 mmHg 85%
    08:00 +8°C° 0 mm 1 mps 754 mmHg 78%
    09:00 +9°C° 0 mm 1 mps 754 mmHg 71%
    10:00 +10°C° 0 mm 2 mps 754 mmHg 64%
    11:00 +12°C° 0 mm 2 mps 753 mmHg 60%
    12:00 +13°C° 0 mm 2 mps 753 mmHg 57%
    13:00 +13°C° 0 mm 2 mps 752 mmHg 53%
    14:00 +13°C° 0 mm 2 mps 752 mmHg 56%
    15:00 +12°C° 0 mm 2 mps 751 mmHg 59%
    16:00 +12°C° 0 mm 2 mps 751 mmHg 62%
    17:00 +10°C° 0 mm 2 mps 751 mmHg 66%
    18:00 +9°C° 0 mm 2 mps 751 mmHg 70%
    19:00 +8°C° 0 mm 2 mps 751 mmHg 74%
    20:00 +7°C° 0 mm 2 mps 751 mmHg 76%
    21:00 +7°C° 0 mm 2 mps 751 mmHg 78%
    22:00 +7°C° 0 mm 3 mps 751 mmHg 80%
    23:00 +7°C° 0.3 mm 3 mps 751 mmHg 83%

    23 October, Tuesday

    Time Temperature Precipitation Wind Pressure Humidity
    00:00 +7°C° 0.3 mm 3 mps 751 mmHg 85%
    01:00 +6°C° 0.3 mm 4 mps 750 mmHg 88%
    02:00 +6°C° 0.4 mm 4 mps 750 mmHg 86%
    03:00 +6°C° 0.4 mm 4 mps 750 mmHg 84%
    04:00 +6°C° 0.4 mm 4 mps 750 mmHg 82%
    05:00 +6°C° 0.1 mm 4 mps 751 mmHg 81%
    06:00 +5°C° 0.1 mm 4 mps 751 mmHg 80%
    07:00 +5°C° 0.1 mm 4 mps 751 mmHg 79%
    08:00 +6°C° 0 mm 4 mps 751 mmHg 73%
    09:00 +7°C° 0 mm 5 mps 751 mmHg 67%
    10:00 +8°C° 0 mm 5 mps 751 mmHg 61%
    11:00 +8°C° 0 mm 5 mps 750 mmHg 58%
    12:00 +9°C° 0 mm 6 mps 749 mmHg 56%
    13:00 +9°C° 0 mm 6 mps 749 mmHg 54%
    14:00 +9°C° 0 mm 6 mps 748 mmHg 56%
    15:00 +8°C° 0 mm 6 mps 747 mmHg 59%
    16:00 +8°C° 0 mm 6 mps 746 mmHg 61%
    17:00 +6°C° 0.4 mm 7 mps 745 mmHg 65%
    18:00 +6°C° 0.4 mm 8 mps 744 mmHg 68%
    19:00 +6°C° 0.4 mm 10 mps 742 mmHg 72%
    20:00 +6°C° 1.5 mm 10 mps 741 mmHg 75%
    21:00 +6°C° 1.5 mm 11 mps 739 mmHg 78%
    22:00 +5°C° 1.5 mm 12 mps 738 mmHg 81%
    23:00 +5°C° 1.8 mm 12 mps 736 mmHg 81%

    24 October, Wednesday

    Time Temperature Precipitation Wind Pressure Humidity
    00:00 +7°C° 1.8 mm 12 mps 735 mmHg 82%
    01:00 +8°C° 1.8 mm 12 mps 733 mmHg 83%
    02:00 +8°C° 0.9 mm 11 mps 733 mmHg 80%
    03:00 +8°C° 0.9 mm 11 mps 733 mmHg 76%
    04:00 +8°C° 0.9 mm 10 mps 732 mmHg 73%
    05:00 +8°C° 0.2 mm 10 mps 733 mmHg 75%
    06:00 +7°C° 0.2 mm 9 mps 734 mmHg 76%
    07:00 +7°C° 0.2 mm 8 mps 734 mmHg 78%
    08:00 +7°C° 0.3 mm 9 mps 735 mmHg 73%
    09:00 +7°C° 0.3 mm 9 mps 736 mmHg 68%
    10:00 +7°C° 0.3 mm 10 mps 736 mmHg 63%
    11:00 +7°C° 0.1 mm 10 mps 737 mmHg 58%
    12:00 +7°C° 0.1 mm 10 mps 737 mmHg 53%
    13:00 +7°C° 0.1 mm 10 mps 738 mmHg 47%
    14:00 +6°C° 0 mm 9 mps 738 mmHg 48%
    15:00 +6°C° 0 mm 8 mps 738 mmHg 49%
    16:00 +5°C° 0 mm 6 mps 739 mmHg 50%
    17:00 +5°C° 0 mm 6 mps 739 mmHg 52%
    18:00 +4°C° 0 mm 6 mps 740 mmHg 53%
    19:00 +3°C° 0 mm 5 mps 740 mmHg 55%
    20:00 +3°C° 0 mm 5 mps 741 mmHg 56%
    21:00 +3°C° 0 mm 5 mps 741 mmHg 57%
    22:00 +3°C° 0 mm 5 mps 741 mmHg 58%
    23:00 +3°C° 0 mm 5 mps 742 mmHg 61%

    25 October, Thursday

    Time Temperature Precipitation Wind Pressure Humidity
    00:00 +3°C° 0 mm 5 mps 742 mmHg 63%
    01:00 +3°C° 0 mm 6 mps 742 mmHg 66%
    02:00 +3°C° 0 mm 5 mps 742 mmHg 70%
    03:00 +2°C° 0 mm 5 mps 742 mmHg 73%
    04:00 +2°C° 0 mm 5 mps 742 mmHg 77%
    05:00 +2°C° 0 mm 5 mps 742 mmHg 79%
    06:00 +2°C° 0 mm 5 mps 741 mmHg 82%
    07:00 +3°C° 0 mm 5 mps 741 mmHg 84%
    08:00 +4°C° 0.3 mm 6 mps 740 mmHg 85%
    09:00 +5°C° 0.3 mm 7 mps 740 mmHg 85%
    10:00 +6°C° 0.3 mm 8 mps 739 mmHg 86%
    11:00 +7°C° 0.2 mm 9 mps 738 mmHg 81%
    12:00 +8°C° 0.2 mm 10 mps 738 mmHg 76%
    13:00 +8°C° 0.2 mm 10 mps 737 mmHg 72%
    14:00 +8°C° 0.1 mm 10 mps 737 mmHg 73%
    15:00 +8°C° 0.1 mm 10 mps 737 mmHg 75%
    16:00 +7°C° 0.1 mm 9 mps 737 mmHg 77%
    17:00 +7°C° 0.1 mm 9 mps 737 mmHg 77%
    18:00 +8°C° 0.1 mm 9 mps 737 mmHg 76%
    19:00 +8°C° 0.1 mm 9 mps 737 mmHg 76%
    20:00 +8°C° 0.1 mm 9 mps 737 mmHg 76%
    21:00 +8°C° 0.1 mm 9 mps 737 mmHg 77%
    22:00 +8°C° 0.1 mm 9 mps 736 mmHg 77%
    23:00 +8°C° 0.5 mm 10 mps 736 mmHg 78%
    Show more